Home   Weather   Urbana   Past weeks

Flag for USA Past Weather in Urbana, Illinois, USA — Yesterday and Last 2 Weeks

Now
73 °F

Sunny.


Feels Like: 76 °F
Forecast: 52 / 62 °F
Wind: 15 mph from West

Location: University Of Illinois-Willard Airport

Current Time: Sep 27, 2016 at 7:17:18 PM

Latest Report: Sep 27, 2016 at 5:53 PM


Visibility: 10 mi

Pressure: 29.80 "Hg

Humidity: 26%

Dew Point: 36 °F

Location of UrbanaLocation

Past Weather in Urbana — Graph

°F

Urbana Temperature Yesterday

Maximum temperature yesterday: 74 °F (at 3:53 PM)
Minimum temperature yesterday: 50 °F (at 10:53 PM)
Average temperature yesterday: 62 °F

High & Low Weather Summary for the Past Weeks

 TemperatureHumidityPressure
High91 °F (Sep 20, 3:53 PM)97% (Sep 15, 3:53 AM)30.22 "Hg (Sep 15, 3:53 AM)
Low49 °F (Sep 27, 6:53 AM)21% (Sep 26, 4:53 PM)29.80 "Hg (Sep 27, 5:53 PM)
Average72 °F72%30.05 "Hg
* Reported Sep 12 5:53 PM — Sep 27 5:53 PM, Urbana, Weather by CustomWeather, © 2016

Note: Actual official high and low records may vary slightly from our data, if they occured in-between our weather recording intervals... More about our weather records

Advertising

Urbana Weather History for the Previous 24 Hours

Scroll right to see more
 ConditionsComfort  
Time TempWeatherWind HumidityBarometerVisibility
5:53 PM
Tue, Sep 27
73 °FSunny.15 mph26%29.80 "Hg10 mi
4:53 PM75 °FSunny.14 mph24%29.80 "Hg10 mi
3:53 PM76 °FSunny.16 mph23%29.81 "Hg10 mi
2:53 PM77 °FSunny.17 mph21%29.83 "Hg10 mi
1:53 PM76 °FSunny.17 mph22%29.84 "Hg10 mi
12:53 PM75 °FSunny.16 mph25%29.86 "Hg10 mi
11:53 AM73 °FSunny.15 mph28%29.90 "Hg10 mi
10:53 AM70 °FSunny.10 mph35%29.93 "Hg10 mi
9:53 AM65 °FSunny.8 mph49%29.94 "Hg10 mi
8:53 AM60 °FSunny.10 mph60%29.95 "Hg10 mi
7:53 AM53 °FSunny.7 mph72%29.95 "Hg10 mi
6:53 AM49 °FSunny.6 mph80%29.96 "Hg10 mi
5:53 AM52 °FClear.8 mph72%29.95 "Hg10 mi
4:53 AM51 °FClear.7 mph74%29.96 "Hg10 mi
3:53 AM51 °FClear.7 mph71%29.96 "Hg10 mi
2:53 AM51 °FClear.8 mph71%29.99 "Hg10 mi
1:53 AM52 °FClear.6 mph66%30.00 "Hg10 mi
12:53 AM53 °FClear.8 mph64%30.01 "Hg10 mi
11:53 PM
Mon, Sep 26
52 °FClear.7 mph66%30.02 "Hg10 mi
10:53 PM50 °FClear.7 mph71%30.03 "Hg10 mi
9:53 PM54 °FClear.7 mph57%30.04 "Hg10 mi
8:53 PM53 °FClear.8 mph61%30.04 "Hg10 mi
7:53 PM56 °FClear.6 mph53%30.03 "Hg10 mi
Weather by CustomWeather, © 2016

See weather overviewHow to use our weather pages